Location: Artiguedieu
(43.5000°N, 0.5454°E)
Time: 15:20:07
(UTC+00:00)

HuskySat-1 - Pass Details

Date: 02 October 2021
Orbit: 445 x 458 km, 51.6° (Epoch: 27 October)

Event Time Altitude Azimuth Distance (km) Brightness Sun altitude
Rises 18:04:21 0° 239° (WSW) 2,447 ? -5.8°
Reaches altitude 10° 18:06:28 10° 240° (WSW) 1,581 ? -6.2°
Maximum altitude 18:10:02 81° 327° (NNW) 465 ? -6.8°
Drops below altitude 10° 18:13:38 10° 56° (ENE) 1,598 ? -7.5°
Enters shadow 18:14:28 - 57° (ENE) 1,936 ? -7.6°
